TimeCST,TemperatureF,Dew PointF,Humidity,Sea Level PressureIn,VisibilityMPH,Wind Direction,Wind SpeedMPH,Gust SpeedMPH,PrecipitationIn,Events,Conditions,WindDirDegrees,DateUTC
12:56 AM,-4.0,-8.0,83,30.47,10.0,WNW,5.8,-,N/A,,Scattered Clouds,290,2014-01-02 06:56:00
1:56 AM,-2.9,-8.0,79,30.46,10.0,WSW,4.6,-,N/A,,Partly Cloudy,250,2014-01-02 07:56:00
2:56 AM,-5.1,-9.0,83,30.46,10.0,Calm,Calm,-,N/A,,Scattered Clouds,0,2014-01-02 08:56:00
3:56 AM,-0.9,-5.1,83,30.45,3.0,WSW,3.5,-,0.00,Snow,Light Snow,240,2014-01-02 09:56:00
4:04 AM,-0.0,-5.1,79,30.33,2.0,West,4.6,-,0.00,Snow,Light Snow,260,2014-01-02 10:04:00
4:12 AM,1.0,-4.0,79,30.33,1.8,WNW,4.6,-,0.00,Snow,Light Snow,290,2014-01-02 10:12:00
4:17 AM,1.0,-4.0,79,30.34,2.0,NW,5.8,-,0.00,Snow,Light Snow,310,2014-01-02 10:17:00
4:29 AM,1.0,-4.0,79,30.33,1.8,Calm,Calm,-,0.01,Snow,Light Snow,0,2014-01-02 10:29:00
4:35 AM,1.0,-4.0,79,30.33,3.0,Calm,Calm,-,0.01,Snow,Light Snow,0,2014-01-02 10:35:00
4:56 AM,-0.0,-5.1,79,30.45,10.0,Calm,Calm,-,0.01,,Scattered Clouds,0,2014-01-02 10:56:00
5:56 AM,1.0,-4.0,79,30.46,10.0,Calm,Calm,-,N/A,,Overcast,0,2014-01-02 11:56:00
6:56 AM,1.9,-2.9,80,30.48,7.0,Calm,Calm,-,0.00,Snow,Light Snow,0,2014-01-02 12:56:00
7:56 AM,1.9,-2.9,80,30.48,10.0,North,6.9,-,0.00,,Overcast,10,2014-01-02 13:56:00
8:56 AM,3.0,-2.9,76,30.49,10.0,NE,4.6,-,N/A,,Overcast,40,2014-01-02 14:56:00
9:56 AM,3.9,-2.9,73,30.52,10.0,North,4.6,-,N/A,,Overcast,350,2014-01-02 15:56:00
10:56 AM,5.0,-2.9,70,30.53,10.0,NNW,5.8,-,N/A,,Mostly Cloudy,340,2014-01-02 16:56:00
11:56 AM,7.0,-2.9,64,30.53,10.0,NNW,4.6,-,N/A,,Overcast,340,2014-01-02 17:56:00
12:56 PM,8.1,-2.9,61,30.51,10.0,NE,5.8,-,N/A,,Clear,40,2014-01-02 18:56:00
1:56 PM,9.0,-2.9,59,30.50,10.0,Calm,Calm,-,N/A,,Clear,0,2014-01-02 19:56:00
2:56 PM,10.0,-2.0,58,30.48,10.0,ENE,4.6,-,N/A,,Clear,70,2014-01-02 20:56:00
3:56 PM,10.0,-2.0,58,30.48,10.0,East,3.5,-,N/A,,Clear,90,2014-01-02 21:56:00
4:56 PM,5.0,-4.0,66,30.49,9.0,ESE,5.8,-,N/A,,Clear,110,2014-01-02 22:56:00
5:40 PM,6.1,-2.0,69,30.38,10.0,ESE,4.6,-,N/A,,Overcast,110,2014-01-02 23:40:00
5:56 PM,6.1,-2.0,69,30.49,10.0,ESE,5.8,-,N/A,,Overcast,110,2014-01-02 23:56:00
6:56 PM,6.1,-2.0,69,30.49,10.0,SE,6.9,-,N/A,,Overcast,140,2014-01-03 00:56:00
7:56 PM,6.1,-0.9,73,30.47,10.0,SE,6.9,-,N/A,,Overcast,140,2014-01-03 01:56:00
8:56 PM,6.1,-0.9,73,30.44,10.0,SSE,9.2,-,N/A,,Overcast,150,2014-01-03 02:56:00
9:56 PM,6.1,-0.9,73,30.42,10.0,SSE,15.0,-,N/A,,Overcast,150,2014-01-03 03:56:00
10:56 PM,7.0,-0.0,73,30.39,10.0,SSE,13.8,-,N/A,,Overcast,160,2014-01-03 04:56:00
11:06 PM,7.0,-0.0,73,30.27,10.0,SSE,13.8,-,N/A,,Overcast,150,2014-01-03 05:06:00
11:56 PM,7.0,1.0,77,30.35,10.0,South,12.7,-,N/A,,Overcast,170,2014-01-03 05:56:00